Norfork Lake Weather Center

Moon Phase Calendar



Norfork Lake Water Level
Online Cameras

 


      

Current Conditions in Baxter
4/13/2024 11:49:11 PM

69°F
Feels Like 67
Clouds
Humidity
47%
Pressure
29.91"
Wind
2 mph (SSE)
Dew Point
48°F
UV Index
0/10 (Low)
Visibility
6 mi

Hourly Forecast

Date & Time Sat, Apr 13
11:00 PM
Sun, Apr 14
12:00 AM
Sun, Apr 14
1:00 AM
Sun, Apr 14
2:00 AM
Sun, Apr 14
3:00 AM
Sun, Apr 14
4:00 AM
Sun, Apr 14
5:00 AM
Sun, Apr 14
6:00 AM
Sun, Apr 14
7:00 AM
Sun, Apr 14
8:00 AM
Sun, Apr 14
9:00 AM
Sun, Apr 14
10:00 AM
Sun, Apr 14
11:00 AM
Sun, Apr 14
12:00 PM
Sun, Apr 14
1:00 PM
Sun, Apr 14
2:00 PM
Sun, Apr 14
3:00 PM
Sun, Apr 14
4:00 PM
Sun, Apr 14
5:00 PM
Sun, Apr 14
6:00 PM
Sun, Apr 14
7:00 PM
Sun, Apr 14
8:00 PM
Sun, Apr 14
9:00 PM
Sun, Apr 14
10:00 PM
Sun, Apr 14
11:00 PM
Mon, Apr 15
12:00 AM
Mon, Apr 15
1:00 AM
Mon, Apr 15
2:00 AM
Mon, Apr 15
3:00 AM
Mon, Apr 15
4:00 AM
Mon, Apr 15
5:00 AM
Mon, Apr 15
6:00 AM
Mon, Apr 15
7:00 AM
Mon, Apr 15
8:00 AM
Mon, Apr 15
9:00 AM
Mon, Apr 15
10:00 AM
Mon, Apr 15
11:00 AM
Mon, Apr 15
12:00 PM
Mon, Apr 15
1:00 PM
Mon, Apr 15
2:00 PM
Mon, Apr 15
3:00 PM
Mon, Apr 15
4:00 PM
Mon, Apr 15
5:00 PM
Mon, Apr 15
6:00 PM
Mon, Apr 15
7:00 PM
Mon, Apr 15
8:00 PM
Mon, Apr 15
9:00 PM
Mon, Apr 15
10:00 PM
Condition
Clouds

Clouds

Clouds

Clear

Clear

Clear

Clear

Clear

Clear

Clear

Clear

Clouds

Clouds

Clouds

Clouds

Clear

Clear

Clear

Clear

Clear

Clear

Clear

Clear

Clear

Clouds

Clouds

Clouds

Clouds

Clouds

Clouds

Clouds

Clouds

Clouds

Clouds

Clouds

Clouds

Clouds

Clouds

Clouds

Clouds

Clouds

Clouds

Clouds

Clouds

Clouds

Clouds

Clouds

Clouds
Temperature 68°F69°F68°F66°F64°F62°F60°F59°F58°F61°F66°F70°F73°F77°F79°F81°F82°F82°F82°F80°F75°F69°F67°F66°F67°F66°F64°F63°F62°F62°F62°F62°F62°F65°F67°F70°F74°F79°F81°F81°F78°F80°F78°F75°F74°F71°F69°F71°F
Feels Like 66°F67°F67°F65°F63°F61°F59°F58°F57°F60°F65°F69°F73°F76°F79°F81°F82°F82°F82°F81°F75°F70°F67°F67°F67°F66°F65°F63°F63°F62°F62°F62°F62°F65°F68°F71°F74°F79°F83°F83°F78°F80°F78°F75°F74°F72°F70°F72°F
Cloudiness 14%13%13%8%5%3%0%0%0%0%0%19%28%23%19%0%0%0%0%2%2%0%0%0%15%32%43%100%77%72%79%84%87%100%100%100%100%100%100%100%100%100%100%100%100%100%100%100%
Visibility 6 mi6 mi6 mi6 mi6 mi6 mi6 mi6 mi6 mi6 mi6 mi6 mi6 mi6 mi6 mi6 mi6 mi6 mi6 mi6 mi6 mi6 mi6 mi6 mi6 mi6 mi6 mi6 mi6 mi6 mi6 mi6 mi6 mi6 mi6 mi6 mi6 mi6 mi6 mi6 mi6 mi6 mi6 mi6 mi6 mi6 mi6 mi6 mi
Precipitation 0%0%0%0%0%0%0%0%0%0%0%0%0%0%0%0%0%0%0%0%0%0%0%0%0%0%0%0%0%0%0%0%0%0%0%0%0%0%0%0%0%0%0%0%0%0%0%0%
Humidity 50%47%51%55%63%67%73%74%76%71%60%54%51%48%46%44%44%44%48%55%67%79%85%87%85%87%92%96%96%96%96%97%97%91%85%79%71%62%57%56%66%62%65%72%75%79%84%77%
Dew Point 48°F48°F49°F50°F51°F51°F50°F50°F50°F52°F52°F52°F54°F56°F56°F57°F58°F59°F61°F62°F63°F63°F62°F62°F62°F62°F62°F62°F61°F61°F61°F61°F61°F62°F62°F63°F64°F64°F64°F64°F66°F65°F65°F65°F65°F64°F64°F63°F
Pressure 29.94"29.91"29.94"29.94"29.94"29.97"29.94"29.94"29.97"29.97"29.94"29.94"29.94"29.91"29.91"29.88"29.88"29.85"29.85"29.85"29.85"29.88"29.91"29.91"29.91"29.91"29.91"29.91"29.88"29.91"29.88"29.91"29.94"29.94"29.94"29.94"29.91"29.91"29.88"29.88"29.88"29.85"29.85"29.85"29.85"29.85"29.88"29.88"
Wind Speed 9.2 mph7.7 mph9.2 mph8.5 mph6.3 mph6.8 mph6.7 mph6.7 mph5.7 mph7.3 mph9.6 mph10.5 mph10 mph10.4 mph10.4 mph10.5 mph10.7 mph11.1 mph9.6 mph8.5 mph6.2 mph5.4 mph5.6 mph6.2 mph7 mph6.4 mph4.8 mph3.7 mph3 mph3.3 mph3 mph4 mph4.3 mph5 mph6 mph5.5 mph5.6 mph7.4 mph8.7 mph10.2 mph8.6 mph8.8 mph9.2 mph8.2 mph8.5 mph6.3 mph5.4 mph9.5 mph
Wind
Direction
209°
SSW
209°
SSW
206°
SSW
201°
SSW
188°
S
198°
SSW
197°
SSW
186°
S
183°
S
185°
S
199°
SSW
217°
SW
222°
SW
219°
SW
220°
SW
220°
SW
222°
SW
223°
SW
222°
SW
218°
SW
207°
SSW
190°
S
187°
S
185°
S
200°
SSW
201°
SSW
198°
SSW
182°
S
159°
SSE
178°
S
158°
SSE
158°
SSE
169°
S
172°
S
185°
S
176°
S
161°
SSE
164°
SSE
166°
SSE
170°
S
166°
SSE
177°
S
180°
S
172°
S
162°
SSE
169°
S
160°
SSE
202°
SSW

Daily Forecast

Date High Low Precip. Humidity
Today
Apr 13

Clear
81 °F
49 °F
0%
40%
Sunday
Apr 14

Clouds
82 °F
58 °F
0%
46%
Monday
Apr 15

Clouds
81 °F
62 °F
0%
57%
Tuesday
Apr 16

Rain
71 °F
64 °F
100%
85%
Wednesday
Apr 17

Clouds
77 °F
58 °F
0%
45%
Thursday
Apr 18

Clouds
74 °F
49 °F
0%
44%
Friday
Apr 19

Rain
71 °F
52 °F
100%
93%
Saturday
Apr 20

Rain
51 °F
45 °F
100%
92%
Sunday
Apr 21

Clouds
63 °F
45 °F
0%
47%
Monday
Apr 22

Clouds
68 °F
43 °F
0%
49%
Tuesday
Apr 23

Rain
72 °F
56 °F
20%
54%
Wednesday
Apr 24

Rain
65 °F
56 °F
100%
92%
Thursday
Apr 25

Rain
71 °F
59 °F
100%
95%
Friday
Apr 26

Rain
72 °F
58 °F
100%
88%
Saturday
Apr 27

Clouds
72 °F
52 °F
0%
49%
Sunday
Apr 28

Clouds
62 °F
48 °F
0%
41%

Temperature 8-14 Day Outlook



Precipitation 8-14 Day Outlook






About Us
Contact Us
Site Map
Search Site
Advertise With Us
   
Norfork.USLakes.info
THE NORFORK LAKE WEBSITE

Copyright 2024, Lakes Online
Privacy    |    Legal